Vorticity
6 5 5 5 4 4 3 4 4 4 4 5 5 5 5 5 5 5 5 4 4 4 4 4 4 4 4 4 4 5 5 5 5 5 5 5 5 5 5 5 5 5 5 5 5 4 4 4 4 5 5 5
5 5 4 4 4 4 4 4 3 4 3 4 4 4 4 4 4 4 4 4 4 4 4 4 4 4 4 3 3 3 3 4 4 4 4 4 4 4 4 5 5 5 5 6 6 6 6 6 6 6 5 5
3 3 3 3 3 3 3 3 3 3 3 3 3 3 3 3 3 3 3 3 3 3 3 3 3 3 3 3 3 3 3 3 3 3 3 3 3 3 3 3 4 4 4 4 4 5 5 6 6 6 7 7
2 2 2 2 2 2 2 3 3 3 3 3 3 3 3 3 3 3 3 3 3 3 3 2 2 2 2 2 2 2 2 2 2 3 3 3 3 3 3 3 3 3 3 3 3 3 3 4 4 4 5 5
3 3 3 3 3 3 3 3 3 3 3 3 3 3 3 4 4 4 4 4 4 4 4 3 3 3 3 3 3 3 3 3 3 3 3 3 3 3 3 2 2 2 2 3 3 3 3 2 3 3 3 4
4 4 4 4 4 4 4 4 4 4 5 4 4 4 4 4 4 5 5 5 5 5 5 5 5 4 5 5 4 4 4 4 4 4 4 4 4 3 3 3 3 3 2 2 2 3 3 3 2 2 2 3
5 5 5 6 6 6 6 6 6 6 6 6 6 6 6 6 6 6 6 6 6 6 6 6 6 6 6 6 6 6 5 5 5 5 5 5 5 4 4 4 4 4 4 4 3 3 3 3 3 3 3 2
6 6 6 6 6 6 7 7 7 7 7 7 7 7 7 7 7 7 7 7 7 7 7 7 7 7 7 7 7 7 7 7 7 6 6 6 6 6 6 5 5 5 4 5 4 4 4 4 4 4 4 4
7 7 7 7 7 7 7 7 7 7 7 7 8 8 8 8 8 9 9 9 9 9 8 8 8 8 8 8 8 8 8 8 8 8 8 8 8 7 7 7 7 6 6 5 5 5 5 4 4 4 4 5
7 7 7 7 7 8 8 8 8 9 9 10 10 11 11 12 13 13 14 14 14 15 14 14 14 14 13 13 13 12 12 12 11 11 11 10 10 10 9 9 8 8 8 7 7 7 7 6 6 5 4 4
8 8 9 9 10 10 11 11 12 13 14 15 16 17 17 18 19 20 20 20 20 21 21 21 21 21 21 20 20 20 19 19 19 18 17 17 16 15 14 13 12 11 10 9 9 8 8 8 8 8 7 6
11 13 14 16 17 18 19 19 20 20 19 19 19 18 18 17 17 16 16 16 16 16 16 17 17 17 18 18 18 19 19 19 20 20 20 21 21 21 20 20 19 19 18 16 15 13 11 10 9 9 8 8
16 16 17 17 18 18 18 17 17 16 15 15 14 12 11 11 10 9 9 9 9 9 9 9 9 9 9 10 10 11 11 11 12 13 13 14 15 17 18 18 19 21 21 21 21 21 19 17 15 13 11 10
18 17 15 13 12 10 9 8 7 7 6 6 6 6 6 6 7 6 7 7 7 7 7 7 7 7 7 7 7 7 8 7 8 8 8 9 9 9 10 11 12 13 15 17 18 20 21 22 22 21 19 17
12 10 9 8 7 6 6 6 6 6 6 6 6 6 7 7 7 7 7 7 7 7 7 7 7 7 7 7 7 7 8 7 7 8 7 8 8 8 8 8 8 8 9 10 11 12 14 16 18 20 21 22
5 5 5 5 6 6 7 7 7 8 8 8 8 8 8 7 7 6 6 6 6 6 6 6 6 6 6 6 6 6 7 7 7 7 7 8 8 8 8 8 8 8 8 8 8 8 8 9 10 12 14 16
5 5 6 6 7 7 7 8 8 7 7 7 6 6 6 5 5 5 5 5 5 5 5 5 6 6 6 6 6 6 6 6 6 6 7 7 7 7 8 8 8 8 8 8 8 8 8 8 8 8 8 9
7 7 7 7 7 7 7 7 6 6 6 5 5 4 4 4 4 4 4 4 4 4 5 5 5 5 5 5 5 6 6 6 6 6 6 6 7 7 7 8 8 8 8 8 8 8 8 8 8 9 9 9
7 7 7 7 6 7 6 6 5 5 4 4 4 3 4 4 4 4 4 4 4 4 5 4 5 5 5 5 5 6 6 6 6 6 6 6 7 7 7 7 7 8 8 8 8 8 8 8 8 8 8 9
6 6 6 5 5 5 5 5 4 4 3 3 3 3 3 4 4 4 4 5 5 5 5 5 5 5 5 5 5 6 6 6 7 7 7 7 7 7 7 7 7 7 7 8 8 8 8 8 8 8 8 8
4 4 4 4 5 5 4 4 4 3 3 2 2 3 3 4 4 4 5 5 6 6 6 6 6 6 6 6 6 6 6 6 7 6 7 7 7 7 7 7 7 8 8 8 8 9 9 9 9 8 8 8
3 3 4 4 4 5 4 4 4 3 2 2 3 3 4 4 4 5 5 6 6 7 7 7 7 6 6 6 6 6 6 6 7 7 7 7 7 7 7 7 7 7 7 8 8 8 8 9 9 9 9 9
4 4 5 6 6 6 6 5 4 3 2 2 3 3 4 4 5 6 7 7 7 7 7 7 7 7 7 7 7 7 7 7 7 7 8 8 8 8 8 8 7 7 7 7 8 7 6 7 7 8 9 9
6 7 8 8 7 6 5 4 3 3 3 4 5 5 6 7 7 8 8 8 8 8 7 7 6 7 7 8 8 8 8 8 8 7 8 8 8 8 8 8 8 8 8 8 8 7 6 6 6 6 7 8
8 8 7 6 5 4 4 4 4 5 6 6 7 8 9 9 9 9 9 9 9 8 8 7 6 7 7 8 8 8 8 8 8 8 8 8 8 8 8 8 9 8 8 8 8 8 7 5 5 5 4 5
7 6 5 4 4 5 5 6 7 7 8 9 10 10 9 10 10 9 9 9 8 8 8 8 8 8 8 9 9 9 9 9 9 9 9 9 9 9 9 9 9 9 9 9 9 8 8 6 6 5 4 3
5 4 5 6 6 7 8 9 10 10 11 11 10 9 9 9 9 9 9 8 8 7 7 8 8 8 9 9 10 10 10 10 10 10 10 10 10 10 11 11 10 9 9 10 11 11 10 10 7 6 6 5
6 6 8 9 9 10 10 11 11 11 11 9 8 9 9 9 9 8 8 7 7 7 7 7 8 8 9 9 10 11 11 11 11 10 10 9 9 9 10 11 11 11 9 9 10 11 11 12 11 9 8 8
8 9 10 10 10 10 10 10 10 10 10 8 8 9 9 9 9 8 8 7 7 7 7 7 7 8 9 9 10 11 11 11 11 10 10 9 9 9 9 10 10 11 11 9 9 11 12 12 11 10 9 8
9 9 8 8 8 8 8 9 9 9 9 8 9 9 9 8 8 8 8 7 7 7 7 7 8 8 9 9 10 10 10 10 10 10 10 9 9 9 9 10 10 10 11 11 9 9 11 12 12 11 10 8
8 8 7 6 6 6 7 8 8 8 8 8 9 8 9 9 8 8 8 8 8 8 8 8 8 8 9 9 10 10 10 10 10 9 9 10 10 10 10 10 9 10 10 12 12 11 9 8 10 11 11 10
Height
5781 5781 5781 5781 5780 5780 5780 5780 5779 5779 5779 5779 5778 5778 5778 5778 5778 5778 5778 5778 5778 5778 5778 5778 5777 5777 5777 5777 5777 5777 5777 5777 5777 5777 5777 5777 5777 5778 5779 5780 5781 5782 5782 5783 5783 5783 5784 5784 5785 5786 5786 5787
5778 5777 5777 5777 5777 5776 5776 5776 5775 5775 5775 5774 5774 5774 5774 5773 5773 5773 5773 5773 5773 5773 5773 5773 5772 5772 5772 5772 5772 5772 5772 5772 5772 5772 5772 5772 5772 5772 5773 5774 5774 5775 5776 5777 5778 5778 5778 5779 5779 5780 5781 5782
5774 5774 5773 5773 5772 5772 5772 5772 5771 5771 5770 5770 5770 5769 5769 5769 5768 5768 5768 5768 5768 5767 5767 5767 5767 5767 5767 5767 5767 5766 5766 5767 5767 5766 5766 5766 5766 5766 5767 5767 5768 5769 5770 5771 5771 5772 5773 5773 5773 5774 5775 5776
5770 5770 5769 5768 5768 5768 5767 5767 5767 5766 5766 5765 5765 5765 5764 5764 5763 5763 5763 5763 5762 5762 5762 5762 5761 5761 5761 5761 5761 5761 5761 5761 5761 5761 5761 5761 5760 5760 5760 5761 5761 5762 5763 5764 5765 5765 5766 5767 5767 5768 5768 5769
5766 5765 5764 5764 5763 5763 5762 5762 5762 5761 5761 5760 5760 5759 5759 5759 5758 5758 5757 5757 5756 5756 5756 5756 5755 5755 5755 5755 5755 5755 5755 5755 5755 5755 5755 5755 5755 5754 5754 5754 5754 5755 5756 5756 5757 5758 5759 5760 5761 5761 5762 5763
5761 5760 5760 5759 5758 5758 5757 5756 5756 5755 5755 5755 5754 5754 5753 5753 5752 5752 5751 5751 5750 5750 5750 5749 5749 5749 5748 5748 5748 5748 5748 5748 5748 5748 5748 5748 5748 5748 5748 5748 5748 5748 5748 5749 5750 5751 5751 5752 5753 5754 5755 5756
5755 5755 5754 5754 5753 5752 5752 5751 5750 5750 5749 5748 5748 5747 5747 5747 5746 5746 5745 5744 5744 5743 5743 5743 5742 5742 5742 5741 5741 5741 5741 5741 5741 5741 5741 5741 5741 5741 5741 5741 5741 5741 5741 5742 5742 5743 5744 5745 5746 5747 5747 5748
5750 5750 5749 5748 5748 5747 5746 5745 5744 5744 5743 5742 5742 5741 5740 5740 5740 5739 5738 5738 5737 5737 5736 5736 5735 5735 5735 5734 5734 5734 5733 5733 5733 5733 5733 5733 5733 5733 5733 5734 5734 5734 5734 5734 5734 5735 5736 5737 5738 5739 5740 5740
5745 5744 5744 5743 5742 5741 5740 5740 5739 5738 5737 5736 5735 5735 5734 5733 5733 5732 5731 5731 5730 5730 5729 5729 5728 5728 5727 5727 5726 5726 5726 5726 5725 5725 5725 5725 5725 5725 5725 5725 5726 5726 5726 5726 5726 5727 5727 5728 5729 5730 5731 5732
5739 5738 5738 5737 5736 5735 5735 5734 5733 5732 5731 5730 5729 5728 5727 5727 5726 5725 5724 5724 5723 5722 5722 5721 5721 5720 5719 5719 5718 5718 5717 5717 5717 5717 5717 5716 5716 5717 5717 5717 5717 5718 5718 5718 5718 5718 5719 5719 5720 5721 5722 5723
5733 5732 5732 5731 5730 5729 5728 5728 5727 5726 5725 5724 5723 5722 5721 5720 5719 5718 5717 5717 5716 5715 5714 5714 5713 5713 5712 5711 5710 5710 5709 5708 5708 5708 5708 5708 5708 5708 5708 5708 5708 5709 5709 5710 5710 5710 5710 5711 5711 5712 5713 5714
5727 5726 5725 5725 5724 5723 5722 5722 5721 5720 5719 5718 5717 5716 5715 5714 5713 5712 5711 5710 5710 5709 5708 5707 5707 5706 5705 5704 5703 5703 5702 5701 5701 5700 5699 5699 5699 5699 5699 5699 5699 5699 5699 5700 5701 5701 5702 5702 5702 5703 5703 5704
5722 5721 5720 5719 5718 5717 5716 5716 5715 5714 5713 5713 5712 5711 5710 5709 5708 5707 5706 5705 5704 5703 5702 5701 5701 5700 5699 5698 5697 5697 5696 5695 5694 5693 5692 5692 5691 5691 5690 5690 5690 5690 5690 5690 5691 5691 5692 5693 5693 5693 5694 5694
5717 5717 5715 5714 5713 5712 5711 5711 5710 5709 5708 5707 5706 5705 5704 5703 5702 5701 5700 5699 5698 5697 5697 5696 5695 5694 5694 5693 5692 5691 5690 5689 5688 5687 5686 5685 5684 5684 5683 5682 5682 5681 5681 5681 5681 5682 5682 5683 5683 5684 5684 5685
5713 5712 5711 5710 5709 5708 5707 5706 5705 5704 5703 5702 5701 5700 5699 5698 5697 5696 5695 5694 5693 5692 5691 5690 5689 5688 5688 5687 5686 5685 5684 5683 5682 5681 5680 5679 5678 5677 5676 5676 5675 5674 5674 5673 5673 5673 5673 5673 5674 5674 5675 5676
5709 5708 5706 5705 5704 5703 5702 5701 5700 5699 5698 5697 5696 5695 5694 5693 5692 5691 5690 5688 5687 5687 5685 5684 5684 5683 5682 5681 5680 5678 5677 5677 5676 5675 5674 5673 5672 5671 5670 5669 5668 5667 5667 5666 5666 5665 5665 5665 5665 5665 5666 5666
5704 5703 5701 5700 5699 5698 5697 5696 5695 5694 5693 5692 5691 5690 5689 5688 5687 5686 5684 5683 5682 5681 5680 5678 5677 5677 5675 5674 5673 5672 5671 5670 5669 5668 5667 5666 5665 5665 5664 5663 5662 5661 5660 5659 5658 5658 5657 5657 5657 5657 5657 5657
5699 5698 5697 5695 5694 5693 5692 5691 5690 5689 5688 5687 5686 5685 5683 5682 5681 5680 5679 5677 5676 5675 5674 5672 5671 5670 5669 5668 5666 5665 5664 5663 5662 5661 5660 5659 5658 5657 5656 5655 5654 5654 5653 5651 5651 5650 5649 5649 5648 5648 5648 5648
5695 5693 5692 5691 5690 5689 5687 5686 5685 5684 5683 5682 5681 5679 5678 5676 5675 5673 5672 5671 5669 5668 5667 5666 5664 5663 5662 5660 5659 5658 5657 5655 5654 5653 5652 5651 5650 5649 5648 5648 5646 5646 5645 5644 5643 5642 5641 5640 5640 5640 5639 5639
5690 5689 5688 5686 5685 5684 5683 5682 5680 5679 5678 5676 5675 5673 5672 5670 5669 5667 5665 5664 5663 5661 5660 5658 5657 5656 5654 5653 5651 5650 5649 5647 5646 5645 5644 5643 5642 5641 5640 5640 5639 5637 5637 5636 5635 5634 5633 5632 5631 5631 5631 5630
5685 5684 5683 5681 5680 5679 5677 5676 5675 5673 5672 5670 5669 5667 5666 5664 5662 5661 5659 5657 5656 5654 5653 5651 5650 5648 5647 5645 5644 5642 5641 5640 5638 5637 5636 5634 5634 5633 5631 5631 5630 5629 5628 5628 5626 5625 5624 5623 5623 5622 5622 5622
5680 5679 5677 5676 5674 5673 5671 5670 5669 5667 5666 5664 5662 5661 5659 5657 5656 5654 5652 5650 5649 5647 5646 5644 5642 5641 5639 5637 5636 5635 5633 5632 5630 5628 5627 5626 5625 5624 5623 5622 5622 5621 5620 5619 5618 5617 5616 5614 5613 5613 5613 5613
5675 5673 5672 5670 5669 5667 5665 5664 5662 5661 5659 5657 5656 5654 5652 5651 5649 5647 5645 5643 5642 5640 5639 5637 5635 5633 5631 5630 5628 5627 5625 5624 5622 5620 5619 5618 5616 5616 5615 5614 5614 5612 5611 5611 5610 5609 5608 5606 5604 5604 5604 5603
5669 5668 5666 5664 5662 5661 5659 5658 5656 5654 5653 5651 5649 5647 5646 5644 5642 5640 5638 5636 5635 5633 5631 5630 5628 5626 5624 5622 5621 5619 5617 5615 5614 5612 5611 5609 5608 5607 5605 5604 5605 5604 5602 5602 5601 5600 5599 5597 5596 5595 5594 5593
5663 5662 5660 5658 5656 5655 5653 5651 5649 5647 5646 5644 5642 5641 5638 5636 5634 5633 5631 5629 5627 5626 5624 5622 5620 5618 5617 5615 5613 5611 5610 5608 5606 5604 5602 5601 5599 5598 5597 5595 5595 5594 5592 5592 5591 5591 5590 5588 5586 5586 5586 5584
5658 5656 5654 5652 5650 5648 5646 5645 5643 5640 5639 5637 5635 5633 5631 5629 5627 5625 5623 5622 5620 5618 5616 5614 5613 5611 5609 5607 5605 5603 5602 5600 5597 5596 5594 5592 5590 5589 5588 5587 5586 5586 5582 5581 5581 5581 5580 5579 5576 5575 5575 5576
5652 5649 5647 5646 5644 5641 5640 5638 5635 5633 5631 5629 5627 5625 5623 5621 5619 5617 5615 5614 5612 5610 5608 5606 5605 5603 5601 5598 5596 5595 5593 5592 5589 5587 5585 5583 5581 5579 5578 5577 5576 5577 5574 5570 5569 5569 5569 5568 5567 5565 5564 5565
5645 5643 5640 5639 5637 5634 5632 5630 5628 5625 5623 5621 5618 5616 5615 5613 5611 5609 5607 5605 5603 5601 5599 5598 5596 5594 5592 5590 5587 5585 5584 5583 5581 5579 5577 5575 5573 5571 5569 5567 5565 5566 5566 5563 5559 5558 5558 5557 5556 5555 5553 5553
5638 5635 5633 5631 5629 5627 5624 5622 5620 5618 5616 5613 5610 5608 5607 5605 5603 5601 5599 5597 5595 5593 5591 5589 5587 5585 5583 5581 5579 5576 5574 5573 5572 5570 5568 5566 5564 5562 5560 5558 5556 5555 5555 5555 5551 5548 5547 5546 5545 5544 5543 5543
5631 5628 5625 5624 5621 5619 5617 5615 5613 5610 5607 5604 5602 5601 5599 5597 5595 5593 5591 5588 5586 5584 5582 5580 5578 5575 5573 5571 5569 5567 5565 5563 5561 5560 5558 5556 5554 5553 5551 5549 5547 5544 5543 5544 5543 5540 5536 5534 5533 5533 5532 5532
5624 5621 5618 5616 5614 5611 5610 5608 5605 5602 5599 5597 5595 5593 5591 5589 5587 5584 5582 5580 5578 5575 5573 5571 5569 5567 5564 5562 5560 5558 5555 5553 5551 5550 5549 5546 5544 5542 5541 5539 5537 5535 5533 5532 5531 5531 5529 5525 5522 5521 5520 5519